#timestamp,LO_Frequency,Hit,StdDev 
1697605215.7,286047014.0,N
1697605235.6,286047011.1,N
1697605255.4,286047011.1,N
1697605275.2,286047009.7,N
1697605295.1,286047013.6,N
1697605296.0,286047013.6,N
1697605315.8,286047014.8,N
1697605335.7,286047014.1,Y
1697605355.5,286047004.9,P
1697605375.3,286047007.1,P
1697605395.2,286047005.1,P
1697605415.0,286047006.6,Y
1697605415.9,286047006.6,P
1697605435.8,286047002.1,P
1697605455.6,286047001.7,N
1697605475.4,286047004.4,N
1697605495.3,286047002.2,N
1697605515.1,286046999.9,N
1697605535.8,286046998.2,N
1697605555.7,286047002.3,N
1697605575.5,286046999.9,N
1697605595.4,286047000.2,N
1697605615.2,286047002.0,N
1697605635.0,286047003.8,N
1697605635.9,286047003.8,N
1697605655.8,286047002.3,N
1697605675.6,286047000.1,N
1697605695.4,286047000.6,N
1697605715.3,286047001.8,N
1697605735.1,286047003.9,N
1697605755.9,286046998.1,N
1697605775.7,286046996.6,N
1697605795.5,286047000.4,N
1697605815.4,286047001.7,N
1697605835.2,286047004.0,N
1697605855.0,286047006.0,N
1697605855.9,286047006.0,N
1697605875.8,286047011.9,Y
1697605895.6,286047004.0,P
1697605915.5,286047003.3,P
1697605935.3,286047003.0,P
1697605955.1,286047004.2,Y
1697605975.9,286047000.6,P
1697606025.7,286046999.5,E
1697606035.7,286046996.5,N
1697606055.5,286046999.3,P
1697606075.3,286047000.5,N
1697606095.2,286047002.1,N
1697606115.0,286047005.8,N
1697606115.9,286047005.8,N
1697606135.8,286047003.3,N
1697606155.6,286047002.5,N
1697606175.4,286047001.6,N
1697606195.3,286047004.3,N
1697606215.1,286047002.2,N
1697606235.8,286047002.3,N
1697606255.7,286047001.3,N
1697606275.5,286047003.4,N
1697606295.4,286047003.8,N
1697606315.2,286046999.8,N
1697606335.0,286047002.8,N
1697606335.9,286047002.8,N
1697606355.8,286047003.8,N
1697606375.6,286047006.0,N
1697606395.4,286047003.9,N
1697606415.3,286047004.3,N
1697606435.1,286047001.5,N
1697606455.9,286047001.6,N
1697606475.7,286046999.8,N
1697606495.5,286047000.8,N
1697606515.4,286047000.7,N
1697606535.2,286046998.4,N
1697606555.1,286046998.2,N
1697606556.0,286046998.2,N
1697606575.8,286046998.3,N
1697606595.6,286046999.0,N
1697606615.5,286046999.0,N
1697606635.3,286047000.7,N
1697606655.1,286047001.2,N
1697606675.9,286046999.4,N
1697606695.7,286047000.2,N
1697606715.6,286047000.9,N
1697606735.4,286047002.6,N
1697606755.2,286047003.0,N
1697606775.1,286047007.2,Y
1697606776.0,286047007.2,P
1697606795.8,286047005.2,N
1697606815.7,286047005.5,N
1697606835.5,286047004.7,N
1697606855.3,286047003.0,N
1697606875.2,286047003.8,N
1697606895.0,286047001.3,N
1697606895.9,286047001.3,N
1697606915.7,286047002.8,N
1697606935.6,286047002.1,N
1697606955.4,286047000.3,N
1697606975.3,286047001.2,N
1697606995.1,286047001.9,N
1697607015.8,286047003.5,N
1697607035.7,286047001.5,N
1697607055.5,286047003.4,N
1697607075.3,286047001.9,N
1697607095.2,286047001.5,N
1697607115.0,286047002.1,N
1697607115.9,286047002.1,N
1697607135.8,286047001.4,N
1697607155.6,286047004.0,N
1697607175.4,286047004.4,N
1697607195.3,286047004.3,N
1697607215.1,286047000.2,N
1697607235.8,286046997.3,N
1697607255.7,286046993.9,Y
1697607275.5,286046989.0,P
1697607295.4,286046987.7,N
1697607315.2,286046985.9,N
1697607335.0,286046984.9,N
1697607335.9,286046984.9,N
1697607355.8,286046980.9,Y
1697607375.6,286046992.9,P
1697607395.5,286046993.2,P
1697607415.3,286046987.0,P
1697607435.1,286046987.1,Y
1697607455.9,286046998.3,P
1697607475.7,286046999.0,N
1697607495.6,286046999.5,N
1697607515.4,286046996.1,N
1697607535.2,286046992.1,N
1697607555.1,286046993.8,N
1697607556.0,286046993.8,N
1697607575.8,286046993.5,N
1697607595.6,286046992.7,N
1697607615.5,286046992.6,N
1697607635.3,286046992.4,N
1697607655.2,286046994.5,N
1697607675.9,286046991.9,N
1697607695.7,286046992.0,N
1697607715.6,286046993.8,N
1697607735.4,286046993.4,N
1697607755.2,286046996.4,N
1697607775.1,286046996.5,N
1697607776.0,286046996.5,N
1697607795.8,286046999.7,N
1697607815.7,286047005.7,N
1697607835.5,286047007.3,N
1697607855.3,286047008.5,N
1697607875.2,286047008.1,N
1697607895.9,286047010.1,N
1697607915.7,286047007.7,N
1697607935.6,286047008.5,N
1697607955.4,286047008.3,N
1697607975.2,286047009.7,N
1697607995.1,286047012.1,N
1697607996.0,286047012.1,N
1697608015.8,286047014.0,N
1697608035.7,286047015.3,N
1697608055.5,286047012.4,N
1697608075.3,286047009.4,N
1697608095.2,286047011.3,N
1697608115.0,286047013.0,N
1697608115.9,286047013.0,N
1697608135.8,286047014.4,N
1697608155.6,286047015.3,N
1697608175.4,286047014.9,N
1697608195.3,286047014.8,N
1697608215.1,286047016.6,N
1697608235.8,286047016.0,N
1697608255.7,286047018.8,N
1697608275.5,286047020.4,Y
1697608295.4,286047008.5,P
1697608315.2,286047006.8,P
1697608335.0,286047009.1,P
1697608335.9,286047009.1,Y
1697608355.8,286046999.7,P
1697608375.6,286047001.4,N
1697608395.4,286047004.3,N
1697608415.3,286047001.9,N
1697608435.1,286047001.4,N
1697608455.9,286047002.2,N
1697608475.7,286047002.2,N
1697608495.5,286047002.2,N
1697608515.4,286047004.4,N
1697608535.2,286047001.3,N
1697608555.0,286047004.2,N
1697608555.9,286047004.2,N
1697608575.8,286047003.7,N
1697608595.6,286047005.4,N
1697608615.5,286047002.9,N
1697608635.3,286047003.2,N
1697608655.1,286047003.8,N
1697608675.9,286047004.6,N
1697608695.7,286047003.4,N
1697608715.5,286047004.0,N
1697608735.4,286047000.2,N
1697608755.2,286047002.5,N
1697608775.0,286047000.6,N
1697608776.0,286047000.6,N
1697608795.8,286046999.4,N
